[[{"header":{"parameterUnit":"m.s-1","parameterCategory":1,"la1":30.2991,"la2":30.254,"lo1":-89.0895,"lo2":-89.0444,"dy":0.0017,"dx":0.0017,"nx":28,"ny":28,"refTime":"2026-02-16T03:00:00:Z","depth":0,"parameterNumber":2,"parameterNumberName":"U-component_of_WINDS"},"data":[0,0,0,0,0,0,0,0,0,0,0,0,0,0,0,0,0,0,0,0,0,0,0,0,0,0,0,0,0,0,0,0,0,0,0,0,0,0,0,0,0,0,0,0,0,0,0,0,0,0,0,0,0,0,0,0,0,0,1.3012,1.3012,0,1.3067,1.3068,1.3068,1.3083,1.3083,1.3082,1.3082,1.3137,1.3139,1.314,0,0,0,0,0,0,0,0,0,0,0,0,0,1.2919,1.2921,1.3012,1.3012,1.3013,1.3067,1.3068,1.3069,1.3083,1.3083,1.3082,1.3082,1.3136,1.3138,1.314,0,0,0,0,0,0,0,0,0,0,0,0,0,1.2965,1.2921,1.3012,1.3027,1.3029,1.3067,1.3068,1.3069,1.3083,1.3083,1.3082,1.3082,1.3136,1.3138,1.3141,1.3167,0,0,1.3149,1.315,0,0,0,0,0,0,0,0,1.2963,1.2969,1.3024,1.3026,1.3028,1.3068,1.3055,1.3102,1.3083,1.3062,1.3082,1.3081,1.3114,1.3118,1.313,1.317,1.3172,1.3149,1.3151,1.3152,1.3153,0,0,0,0,0,0,0,1.2959,1.2966,1.3034,1.3025,1.3027,1.3031,1.3037,1.3064,1.309,1.3064,1.3065,1.3072,1.3115,1.3127,1.3131,1.3173,1.3149,1.3151,1.3153,1.3154,1.324,1.3241,0,0,0,0,0,0,1.2954,1.2964,1.3032,1.3035,1.2994,1.3033,1.304,1.3055,1.309,1.3095,1.3072,1.3072,1.3123,1.3128,1.3133,1.3168,1.3152,1.3154,1.3156,1.3239,1.324,1.3241,0,0,0,0,0,0,1.2952,1.296,1.303,1.3,1.3009,1.3035,1.3053,1.3057,1.3069,1.3096,1.3101,1.308,1.3123,1.313,1.3159,1.317,1.3156,1.3158,1.3239,1.324,1.3241,1.3237,0,0,0,0,0,0,1.2949,1.2959,1.2969,1.3,1.3011,1.3054,1.3053,1.3058,1.3074,1.3074,1.3105,1.3109,1.3123,1.3155,1.3162,1.3173,1.316,1.3238,1.3239,1.324,1.3236,1.3237,1.3239,0,0,0,0,0,1.2945,1.2964,1.2969,1.2977,1.3024,1.3055,1.3061,1.3077,1.3074,1.3085,1.3103,1.3108,1.3168,1.3158,1.3166,1.3178,1.3237,1.3239,1.324,1.3235,1.3237,1.3239,0,0,0,0,0,0,1.2932,1.2969,1.2974,1.3004,1.3026,1.3057,1.3071,1.3078,1.3102,1.3101,1.312,1.3127,1.3156,1.317,1.3158,1.3207,1.3203,1.3206,1.3196,1.3198,1.32,1.3195,1.3162,0,0,0,0,0,1.2933,1.2956,1.2986,1.3009,1.3021,1.3044,1.3058,1.3069,1.3093,1.3102,1.3122,1.3145,1.317,1.3185,1.3208,1.3239,1.3246,1.3251,1.3253,1.3254,1.3256,1.3275,1.3278,1.3246,1.3246,1.3246,0,0,1.2934,1.2957,1.297,1.3007,1.3026,1.305,1.3052,1.3076,1.3094,1.3106,1.3136,1.3151,1.3178,1.3209,1.3224,1.3222,1.3267,1.3256,1.3256,1.3258,1.3277,1.328,1.3283,1.3247,1.3247,1.3247,0,0,1.2948,1.2968,1.299,1.301,1.3039,1.3055,1.306,1.3091,1.3102,1.3133,1.3143,1.3165,1.3206,1.3225,1.324,1.3266,1.3272,1.3273,1.328,1.3299,1.3301,1.3303,1.3313,1.3317,1.3276,1.3276,1.3276,0,1.2946,1.2982,1.3,1.3025,1.3042,1.3056,1.3079,1.3097,1.3132,1.3144,1.3142,1.3195,1.3214,1.3251,1.3257,1.3269,1.3277,1.3269,1.3299,1.3302,1.3304,1.3314,1.3318,1.3276,1.3276,1.3276,1.3276,0,1.2978,1.3003,1.3018,1.3053,1.3072,1.3095,1.3118,1.3135,1.3145,1.3161,1.3194,1.3218,1.3247,1.3257,1.3266,1.3296,1.3294,1.3296,1.3291,1.3307,1.3317,1.3321,1.3276,1.3276,1.3276,1.3276,0,0,1.2983,1.303,1.3035,1.3053,1.3087,1.3107,1.3133,1.3163,1.3178,1.3202,1.3224,1.326,1.3263,1.328,1.3292,1.3309,1.3329,1.3309,1.331,1.3312,1.3365,1.3363,1.3367,1.3334,1.3335,1.3336,1.3363,0,1.3002,1.3048,1.3067,1.3104,1.3128,1.3144,1.3166,1.319,1.3207,1.323,1.3249,1.3275,1.3275,1.3286,1.3303,1.3323,1.334,1.3322,1.3355,1.3356,1.3348,1.3372,1.337,1.3395,1.3367,1.3367,1.3368,0,1.3029,1.3056,1.3096,1.313,1.3141,1.3161,1.3192,1.3213,1.3242,1.3253,1.3274,1.3286,1.3315,1.331,1.335,1.3337,1.3352,1.3364,1.3366,1.3369,1.3362,1.3377,1.3403,1.3406,1.3374,1.3373,1.3373,0,1.303,1.3075,1.3106,1.312,1.3161,1.3175,1.3192,1.322,1.3238,1.3265,1.3277,1.3307,1.3323,1.3346,1.3367,1.3361,1.3405,1.3401,1.3416,1.3415,1.3423,1.3422,1.3452,1.3433,1.3433,1.3433,1.3433,0,1.3049,1.3073,1.3107,1.3126,1.3154,1.3176,1.3204,1.3222,1.3248,1.3271,1.3286,1.3307,1.3333,1.3358,1.3374,1.3406,1.3413,1.3423,1.3427,1.3422,1.342,1.3431,1.343,1.3434,1.3434,1.3434,1.3434,0,1.3053,1.3077,1.3112,1.3148,1.3158,1.3177,1.3209,1.3228,1.3247,1.3276,1.3285,1.3314,1.3345,1.3368,1.3407,1.3418,1.3452,1.3456,1.3442,1.3444,1.3457,1.3456,1.3495,1.3502,1.3478,1.3479,1.3479,0,1.3063,1.3083,1.3122,1.3139,1.3157,1.3184,1.3203,1.3227,1.3246,1.3282,1.3298,1.333,1.3356,1.3405,1.343,1.3461,1.3466,1.3478,1.347,1.3465,1.3467,1.3465,1.3468,1.3478,1.3478,1.3478,1.3478,0,1.3079,1.3091,1.3118,1.3151,1.3173,1.3199,1.3226,1.3239,1.3268,1.3289,1.3321,1.3342,1.3384,1.3416,1.345,1.3468,1.3479,1.3481,1.3486,1.348,1.3472,1.3478,1.3445,1.348,1.3479,1.3479,1.3479,1.3479,1.3087,1.3106,1.3138,1.3168,1.3191,1.3216,1.3237,1.326,1.3287,1.3323,1.3336,1.3369,1.34,1.3447,1.3466,1.3493,1.3493,1.35,1.3502,1.3504,1.3504,1.3468,1.35,1.35,1.35,1.35,1.35,0,1.3105,1.3127,1.3155,1.3192,1.3217,1.3226,1.3256,1.3276,1.3306,1.3334,1.3361,1.3399,1.3431,1.346,1.3493,1.351,1.3516,1.3518,1.3517,1.3521,1.3501,1.3494,1.3513,1.3513,1.3513,1.3513,1.3513,1.3513,1.3116,1.3149,1.3165,1.321,1.3232,1.3266,1.3283,1.3306,1.3329,1.3372,1.3399,1.3418,1.3447,1.3483,1.3513,1.3521,1.3533,1.3534,1.3543,1.3524,1.3522,1.3521,1.3514,1.3537,1.3537,1.3561,1.3561,1.3561]},{"header":{"parameterUnit":"m.s-1","parameterCategory":1,"la1":30.2991,"la2":30.254,"lo1":-89.0895,"lo2":-89.0444,"dy":0.0017,"dx":0.0017,"nx":28,"ny":28,"refTime":"2026-02-16T03:00:00:Z","depth":0,"parameterNumber":3,"parameterNumberName":"V-component_of_WINDS"},"data":[0,0,0,0,0,0,0,0,0,0,0,0,0,0,0,0,0,0,0,0,0,0,0,0,0,0,0,0,0,0,0,0,0,0,0,0,0,0,0,0,0,0,0,0,0,0,0,0,0,0,0,0,0,0,0,0,0,0,-5.9867,-5.9867,0,-5.9917,-5.9918,-5.9919,-5.9842,-5.984,-5.9837,-5.9834,-5.9884,-5.9888,-5.9892,0,0,0,0,0,0,0,0,0,0,0,0,0,-5.9702,-5.9705,-5.9866,-5.9867,-5.9868,-5.9917,-5.9918,-5.9919,-5.9843,-5.984,-5.9836,-5.9833,-5.9883,-5.9887,-5.9892,0,0,0,0,0,0,0,0,0,0,0,0,0,-5.9765,-5.9706,-5.9866,-5.9836,-5.9834,-5.9917,-5.9918,-5.9919,-5.9843,-5.9839,-5.9835,-5.9832,-5.9881,-5.9887,-5.9893,-6.0008,0,0,-5.991,-5.9912,0,0,0,0,0,0,0,0,-5.9762,-5.9771,-5.984,-5.9838,-5.9836,-5.9869,-5.9878,-5.9949,-5.9844,-5.984,-5.9834,-5.983,-5.9882,-5.9888,-5.9906,-6.001,-6.0012,-5.991,-5.9914,-5.9916,-5.9918,0,0,0,0,0,0,0,-5.9757,-5.9769,-5.9886,-5.9841,-5.9838,-5.9819,-5.9824,-5.9891,-5.9883,-5.984,-5.9834,-5.9842,-5.988,-5.9901,-5.9907,-6.0013,-5.991,-5.9915,-5.9919,-5.9921,-6.0215,-6.022,0,0,0,0,0,0,-5.9757,-5.9765,-5.9885,-5.9888,-5.9788,-5.9825,-5.983,-5.9863,-5.9882,-5.9881,-5.9845,-5.9838,-5.9893,-5.99,-5.9908,-6.0046,-5.9916,-5.9922,-5.9925,-6.0211,-6.0216,-6.0221,0,0,0,0,0,0,-5.9754,-5.9768,-5.9883,-5.9825,-5.9838,-5.9832,-5.9869,-5.9866,-5.9886,-5.9886,-5.9884,-5.9867,-5.989,-5.99,-5.9984,-6.0046,-5.9924,-5.9929,-6.0206,-6.0213,-6.0219,-6.0321,0,0,0,0,0,0,-5.9749,-5.9768,-5.9811,-5.9827,-5.9842,-5.9959,-5.9873,-5.987,-5.9896,-5.9887,-5.9906,-5.9905,-5.9888,-5.9976,-5.999,-6.0052,-5.9934,-6.02,-6.0209,-6.0217,-6.0312,-6.033,-6.0346,0,0,0,0,0,-5.9744,-5.9837,-5.9814,-5.9829,-5.9897,-5.9963,-5.9971,-5.995,-5.9902,-5.9946,-5.9946,-5.9905,-6.0037,-5.9985,-6.0,-6.0065,-6.0196,-6.0206,-6.0216,-6.0304,-6.0326,-6.0345,0,0,0,0,0,0,-5.9828,-5.9838,-5.9813,-5.9915,-5.9939,-5.995,-6.0004,-5.9973,-6.0011,-6.0001,-5.9971,-5.9976,-6.0067,-6.0074,-6.0016,-6.0178,-6.0109,-6.0122,-6.017,-6.0192,-6.0208,-6.0205,-5.9939,0,0,0,0,0,-5.9858,-5.9912,-5.9918,-6.0007,-6.002,-6.0011,-6.0038,-6.002,-6.0043,-6.0052,-6.0058,-6.0082,-6.0129,-6.016,-6.0203,-6.0312,-6.0316,-6.0364,-6.0381,-6.0395,-6.0407,-6.0467,-6.0489,-6.0254,-6.0254,-6.0253,0,0,-5.9922,-5.9934,-5.9969,-6.0024,-6.004,-6.0096,-6.0019,-6.0081,-6.0122,-6.0061,-6.0142,-6.0147,-6.0171,-6.0269,-6.0312,-6.0278,-6.0473,-6.0407,-6.0418,-6.0423,-6.0479,-6.0501,-6.0521,-6.026,-6.0259,-6.0258,0,0,-6.0066,-6.008,-6.0157,-6.0175,-6.0202,-6.0195,-6.0214,-6.023,-6.0232,-6.0312,-6.0269,-6.0316,-6.0397,-6.0417,-6.0438,-6.0591,-6.0556,-6.0606,-6.0694,-6.0753,-6.0772,-6.0788,-6.0844,-6.0865,-6.0618,-6.0618,-6.0618,0,-6.0141,-6.0224,-6.02,-6.0266,-6.0292,-6.024,-6.0318,-6.0337,-6.0375,-6.0394,-6.0355,-6.0457,-6.0469,-6.0572,-6.061,-6.0627,-6.0648,-6.0604,-6.0771,-6.0787,-6.0802,-6.0856,-6.0877,-6.0624,-6.0623,-6.0623,-6.0622,0,-6.0316,-6.0374,-6.0433,-6.0474,-6.0506,-6.0577,-6.0564,-6.0599,-6.0578,-6.0576,-6.0659,-6.0672,-6.0718,-6.0741,-6.072,-6.0841,-6.0819,-6.0776,-6.0706,-6.0831,-6.0881,-6.0901,-6.0633,-6.0631,-6.0629,-6.0627,0,0,-6.0515,-6.0543,-6.0565,-6.0583,-6.0609,-6.0653,-6.0722,-6.0769,-6.08,-6.0828,-6.0886,-6.0957,-6.0918,-6.0941,-6.0922,-6.0974,-6.1097,-6.0924,-6.0925,-6.0958,-6.1233,-6.1266,-6.129,-6.1073,-6.1077,-6.108,-6.1231,0,-6.066,-6.0781,-6.0762,-6.0879,-6.0933,-6.0886,-6.0946,-6.0969,-6.0969,-6.1014,-6.1013,-6.1064,-6.1008,-6.1022,-6.1071,-6.1072,-6.1152,-6.106,-6.1127,-6.113,-6.1124,-6.1316,-6.1351,-6.1494,-6.125,-6.1254,-6.1256,0,-6.0846,-6.0884,-6.1007,-6.1026,-6.1048,-6.1103,-6.1144,-6.1188,-6.1213,-6.1209,-6.1236,-6.1208,-6.1277,-6.1206,-6.1301,-6.1239,-6.1265,-6.127,-6.1275,-6.1281,-6.1202,-6.1329,-6.1538,-6.1561,-6.1286,-6.1284,-6.1282,0,-6.0982,-6.1062,-6.1147,-6.1164,-6.1188,-6.1228,-6.1239,-6.126,-6.1289,-6.1325,-6.1344,-6.1387,-6.1411,-6.1445,-6.1429,-6.1378,-6.1528,-6.1454,-6.1527,-6.1528,-6.1562,-6.156,-6.178,-6.1576,-6.1576,-6.1576,-6.1575,0,-6.1147,-6.1224,-6.1208,-6.126,-6.1346,-6.1323,-6.1408,-6.1414,-6.1433,-6.1485,-6.1446,-6.1496,-6.1471,-6.1519,-6.1507,-6.1589,-6.1599,-6.1599,-6.1595,-6.1603,-6.1604,-6.1621,-6.1611,-6.1581,-6.158,-6.1579,-6.1578,0,-6.1313,-6.1305,-6.1394,-6.141,-6.1416,-6.1479,-6.1492,-6.1541,-6.1538,-6.1605,-6.1619,-6.1614,-6.1669,-6.1656,-6.1715,-6.1707,-6.1811,-6.1794,-6.1804,-6.18,-6.1874,-6.1868,-6.2114,-6.2146,-6.192,-6.1922,-6.1924,0,-6.142,-6.1479,-6.1502,-6.1535,-6.155,-6.1603,-6.1634,-6.1613,-6.1646,-6.168,-6.1725,-6.1776,-6.1817,-6.1906,-6.1908,-6.1953,-6.1938,-6.2021,-6.1944,-6.1951,-6.1941,-6.1939,-6.1945,-6.2036,-6.2039,-6.2041,-6.2043,0,-6.1611,-6.1605,-6.1651,-6.1697,-6.1734,-6.1769,-6.1799,-6.1828,-6.181,-6.1849,-6.1906,-6.1937,-6.1999,-6.2051,-6.2093,-6.2104,-6.2072,-6.2067,-6.2086,-6.2096,-6.21,-6.2101,-6.1847,-6.2061,-6.2059,-6.2058,-6.2057,-6.2056,-6.1752,-6.1803,-6.1828,-6.1881,-6.1902,-6.1932,-6.1979,-6.1983,-6.203,-6.208,-6.2064,-6.2129,-6.2152,-6.2206,-6.2223,-6.2273,-6.2241,-6.2269,-6.2277,-6.2284,-6.2295,-6.2091,-6.228,-6.2279,-6.2279,-6.2278,-6.2278,0,-6.1943,-6.1957,-6.2006,-6.2051,-6.2093,-6.2059,-6.2091,-6.2129,-6.2187,-6.2212,-6.2253,-6.2318,-6.2369,-6.2375,-6.2422,-6.2461,-6.2448,-6.2475,-6.2472,-6.2476,-6.2319,-6.2298,-6.2485,-6.2485,-6.2485,-6.2485,-6.2485,-6.2485,-6.2048,-6.2133,-6.213,-6.2225,-6.2238,-6.2302,-6.2324,-6.2351,-6.2372,-6.2447,-6.249,-6.2493,-6.2511,-6.256,-6.2605,-6.2605,-6.2625,-6.2659,-6.2654,-6.2507,-6.2487,-6.2467,-6.2447,-6.2663,-6.2663,-6.2807,-6.2808,-6.2809]}]]